Wind_Speed
22 23 22 22 21 21 20 19 19 18 18 18 18 19 19 20 20 20 20 19 18 19 22 20 20 17 19 12 20 15 22 17 10 12 12 7 5 2 2 6 11 5 5 10 16 23 24
21 20 20 20 20 19 18 18 17 17 17 17 17 17 17 18 18 17 17 18 18 18 18 17 16 14 16 9 9 1 8 11 9 10 11 4 4 10 11 4 3 10 16 17 16 21 21
18 18 16 16 15 14 14 14 14 14 13 13 12 13 14 15 15 15 15 17 17 18 16 15 14 16 21 31 16 19 22 20 13 12 15 11 11 9 9 8 10 11 10 11 6 12 8
19 18 17 17 17 14 12 12 12 12 12 13 12 13 14 16 16 16 16 16 16 17 15 14 12 15 15 21 11 6 8 23 20 23 18 15 15 13 7 9 10 7 6 2 5 3 11
21 20 20 19 17 15 13 13 13 13 14 13 13 14 15 17 16 15 15 14 14 14 11 9 11 11 16 3 7 3 7 10 15 14 14 17 13 12 10 2 4 3 7 5 5 9 5
17 17 16 16 16 16 15 15 14 13 14 13 13 14 14 14 14 13 11 11 11 8 10 11 14 8 10 2 2 3 1 1 8 8 7 16 10 2 2 4 5 7 6 4 3 6 9
16 15 14 13 13 14 14 14 12 12 14 12 13 14 14 13 14 10 7 5 4 5 11 12 5 13 11 12 10 6 9 7 7 7 5 6 4 7 15 10 8 6 9 15 11 7 10
20 19 17 17 15 14 12 12 10 13 12 11 11 12 11 12 11 9 7 5 4 5 13 24 28 36 37 25 11 26 13 11 10 7 2 3 8 11 9 10 12 13 14 15 16 12 13
24 25 22 20 19 16 13 10 10 12 10 8 7 8 7 8 8 10 12 13 5 7 7 12 22 17 22 20 17 29 20 11 4 5 9 10 8 7 11 13 14 17 12 13 16 10 3
23 23 24 24 21 20 20 18 14 13 12 9 7 7 6 6 6 7 11 4 6 5 4 7 6 7 11 9 7 14 23 19 6 12 9 9 18 18 16 12 10 17 6 11 8 7 8
25 24 22 19 26 25 23 20 16 16 15 11 9 6 7 6 6 7 3 13 7 0 4 2 5 5 15 12 2 3 8 17 9 10 4 7 2 5 10 18 8 20 11 7 3 5 3
29 27 26 25 24 22 21 17 14 14 14 12 11 8 10 8 11 8 3 14 6 5 7 5 9 9 7 8 3 6 7 13 13 8 9 13 19 6 15 16 13 17 4 7 4 1 4
31 30 30 27 26 23 20 18 16 15 13 13 12 11 11 10 8 15 13 14 3 4 3 5 6 7 10 8 4 3 5 8 7 3 6 10 14 6 12 13 3 3 5 2 3 1 6
28 29 30 28 27 28 26 22 19 17 13 12 13 15 14 16 11 22 21 3 6 6 9 3 3 6 6 5 7 9 3 5 7 6 4 5 6 5 3 5 6 6 8 5 4 3 4
33 33 31 30 26 24 22 24 21 18 14 13 15 15 19 15 18 28 23 6 8 6 2 3 5 4 7 8 10 11 13 12 10 12 9 5 6 2 3 3 6 2 3 6 1 2 2
32 30 31 29 26 27 23 21 20 17 14 12 14 14 22 11 20 38 11 16 10 5 6 4 3 5 4 1 4 4 7 1 1 9 8 7 9 1 1 2 1 5 7 3 2 3 5
32 31 30 28 27 25 23 21 19 17 13 12 7 6 5 20 33 29 11 11 15 21 10 4 7 7 7 5 4 5 4 0 2 0 7 1 5 3 2 4 7 2 2 2 5 4 3
30 32 30 28 27 26 23 21 19 17 12 12 7 3 8 24 14 9 15 15 19 10 21 17 10 17 14 8 5 5 8 5 4 2 3 2 2 4 6 4 4 3 5 6 4 4 4
32 29 29 27 27 28 25 22 21 19 18 15 8 14 10 30 9 9 10 17 15 14 8 10 10 9 6 10 4 6 2 2 9 4 7 7 2 1 5 4 3 3 4 3 2 4 12
31 30 30 30 30 28 28 26 23 21 21 19 7 3 10 24 12 11 14 15 17 15 21 20 8 7 7 5 6 4 3 1 2 3 6 7 4 6 9 3 4 2 5 2 5 3 3
32 32 31 31 31 31 30 29 27 24 23 23 14 5 7 5 17 17 13 7 20 17 20 16 8 19 7 5 5 6 4 3 2 3 2 5 5 4 4 2 3 3 9 14 8 9 10
31 32 33 34 33 32 31 30 29 26 25 29 11 7 7 4 26 20 15 19 24 15 16 15 16 8 10 15 7 6 6 5 5 4 4 1 3 2 2 3 4 7 11 9 8 6 5
30 31 32 32 32 32 32 32 31 29 29 28 25 21 7 6 7 13 21 28 21 14 17 32 19 8 12 16 7 4 6 7 4 7 7 6 5 2 3 1 1 4 6 11 7 4 1
30 31 31 31 30 31 31 30 30 32 34 37 23 20 12 6 7 13 13 22 24 20 17 11 26 15 8 9 8 5 2 8 13 11 9 6 6 3 2 1 4 1 5 6 11 6 6
28 29 30 31 31 31 30 30 31 31 32 38 36 23 12 5 6 9 15 14 21 27 24 23 19 21 19 12 3 4 0 2 1 5 6 5 4 3 3 3 1 1 4 2 3 2 3
29 29 30 30 30 30 30 31 30 31 31 36 39 38 14 3 11 12 9 18 10 9 12 4 13 22 22 3 2 5 5 5 5 3 5 5 4 4 2 3 5 5 1 6 3 4 4
34 33 33 33 33 32 32 33 32 31 30 35 36 36 20 9 12 8 7 11 12 4 4 3 11 13 14 2 3 3 3 5 6 8 6 3 2 5 2 2 4 3 1 1 3 5 2
33 32 33 34 34 34 34 37 35 31 32 38 36 29 36 10 13 18 25 13 13 15 4 8 7 2 2 5 3 3 3 3 4 2 5 5 5 3 3 2 7 2 2 5 2 3 2
23 29 34 32 32 30 31 33 36 35 34 37 28 31 33 18 9 15 22 33 32 30 19 15 5 5 8 3 2 2 1 2 4 2 2 0 5 4 4 4 5 5 6 3 3 6 3
Wind_Direction
257 259 260 262 262 264 262 260 263 266 270 272 274 273 274 276 277 280 284 287 289 291 297 300 302 303 310 296 270 286 271 273 282 308 306 289 270 232 242 289 307 253 257 287 300 307 301
254 256 260 262 261 262 262 261 260 264 266 267 270 273 276 277 278 280 282 283 283 286 294 301 302 305 307 279 312 201 279 254 261 289 295 241 264 309 299 270 300 302 310 302 308 313 305
251 256 257 256 257 255 256 256 255 253 256 260 264 268 272 275 279 282 284 285 284 285 288 290 294 303 294 273 301 273 252 250 224 242 271 268 292 309 320 321 295 306 307 307 281 277 276
249 252 254 255 256 257 257 251 247 250 256 259 264 270 275 280 278 281 284 288 290 282 280 282 278 296 271 308 288 306 250 241 242 238 247 265 275 292 275 277 316 320 296 305 207 254 268
248 249 248 250 251 251 246 247 249 250 255 261 267 272 279 282 283 281 285 291 289 278 275 270 274 280 271 303 308 270 259 259 227 221 243 251 265 265 265 332 359 291 272 249 311 239 288
249 256 251 249 248 247 245 242 245 250 253 262 268 272 277 282 285 290 290 293 282 261 265 268 244 275 256 214 343 304 249 353 209 203 240 230 230 194 49 142 227 229 249 255 197 285 293
251 252 250 255 259 254 249 247 244 247 254 264 280 281 278 280 283 293 290 303 271 271 236 222 229 242 252 248 262 283 229 212 195 198 188 218 170 204 220 212 234 270 280 283 274 256 286
243 247 249 254 258 261 251 247 244 244 252 263 278 285 276 274 281 276 244 244 227 306 288 268 263 256 260 258 280 243 239 202 189 198 212 294 243 228 218 232 243 249 259 276 285 286 273
244 245 242 248 249 254 252 252 254 253 252 261 278 286 276 273 276 260 252 249 201 291 276 276 249 245 255 236 234 251 224 216 200 219 216 214 242 216 217 234 251 253 262 277 286 326 318
245 248 245 241 246 249 258 264 262 252 255 258 268 283 271 262 271 250 262 254 156 300 304 274 219 238 190 171 227 262 232 217 200 227 235 246 234 247 264 259 253 275 264 289 313 2 302
242 245 245 245 246 250 256 262 248 247 255 253 253 267 260 233 180 223 290 135 157 231 351 166 191 176 160 174 130 33 193 190 214 217 163 212 223 240 262 260 270 278 290 247 231 267 358
246 247 253 254 252 249 259 249 244 246 251 251 247 248 252 239 218 194 146 154 144 52 252 302 158 169 148 224 264 144 152 192 225 223 235 247 253 227 246 258 238 254 216 15 334 201 247
249 256 258 252 248 251 251 247 247 248 255 248 246 250 252 233 218 158 160 161 89 189 308 229 196 165 188 181 231 231 182 175 185 161 250 276 257 243 236 252 197 129 82 306 310 215 234
246 253 250 250 251 252 247 247 244 252 256 243 247 248 256 248 194 164 176 150 198 215 231 299 46 337 215 197 227 217 220 224 225 199 197 218 307 212 214 184 197 187 166 167 249 226 260
252 249 246 248 249 251 247 242 243 250 251 246 251 257 263 257 208 178 183 199 214 191 224 252 329 278 290 217 206 204 206 214 217 182 193 210 243 101 93 162 140 198 160 171 1 278 307
242 243 241 240 244 248 247 236 237 239 239 243 256 270 261 223 192 184 195 219 234 203 313 5 234 228 252 177 335 191 202 242 275 213 223 225 261 316 54 111 140 162 166 95 80 252 245
241 242 241 242 242 244 238 235 232 231 232 238 244 281 248 178 177 189 202 227 238 243 269 249 270 255 279 308 240 254 229 131 151 151 96 67 196 240 155 197 181 143 189 133 151 160 230
244 239 242 242 240 237 235 238 233 226 220 223 198 219 199 180 184 188 213 217 224 242 227 243 277 275 260 276 265 246 224 228 181 88 156 136 188 192 203 211 167 167 203 173 149 223 241
244 245 237 235 235 235 235 233 232 228 219 215 213 218 195 191 202 213 229 237 243 253 231 233 242 218 235 251 266 231 173 235 202 175 177 167 219 111 331 358 340 209 210 212 145 144 240
235 236 235 232 231 233 234 232 227 225 216 213 209 221 189 209 239 225 223 231 227 231 236 251 268 295 273 278 221 242 147 182 203 180 169 113 154 191 232 196 137 176 325 246 203 171 212
233 230 228 230 234 233 232 231 227 221 215 209 205 229 203 182 218 219 218 228 232 238 230 202 239 238 240 249 224 218 139 149 56 180 75 118 201 211 243 195 175 161 244 261 274 235 224
233 231 231 231 232 232 231 230 225 221 212 211 200 202 215 253 214 207 208 231 232 245 228 222 236 238 222 230 203 218 148 174 179 188 170 164 201 155 284 276 268 244 249 258 258 265 251
234 233 231 231 232 232 231 229 225 218 210 212 220 227 225 215 193 192 210 226 232 236 240 232 238 219 223 228 207 185 229 275 165 160 172 162 142 109 264 226 0 259 223 238 250 63 156
234 232 230 230 231 231 231 228 223 219 214 212 213 211 218 251 201 204 210 221 231 235 229 237 220 216 216 168 120 79 318 286 214 215 168 150 134 105 220 77 238 131 29 32 105 58 34
232 230 230 230 230 231 228 225 221 220 216 219 218 210 200 246 209 218 216 221 229 236 240 238 224 222 170 121 110 80 339 256 95 182 171 139 130 163 157 192 24 253 344 72 119 194 2
234 234 232 231 230 228 229 224 222 221 217 218 222 221 226 220 234 213 203 222 222 220 241 240 189 167 150 134 117 159 186 181 166 192 159 114 117 128 122 178 220 233 101 100 110 285 150
236 236 235 234 232 231 229 223 223 218 219 213 218 222 237 231 261 240 201 207 187 171 189 168 159 169 164 142 157 185 201 166 160 166 166 127 74 163 139 199 273 141 256 24 113 237 96
232 232 234 234 232 230 226 226 220 218 212 207 209 225 217 235 246 236 235 196 174 188 164 174 111 167 143 178 164 202 150 186 101 160 165 155 152 185 94 116 257 151 139 197 145 122 207
224 230 234 233 222 222 222 215 216 207 204 208 217 221 211 237 249 245 253 229 221 201 167 183 168 151 163 136 192 104 113 83 143 185 131 98 173 176 180 207 135 84 105 128 210 179 174
Height
1516 1517 1518 1519 1520 1522 1522 1523 1524 1525 1527 1527 1527 1528 1527 1527 1526 1526 1526 1525 1524 1524 1523 1521 1520 1520 1518 1519 1508 1508 1510 1509 1510 1510 1511 1510 1508 1508 1510 1508 1505 1502 1498 1497 1497 1496 1494
1512 1513 1514 1515 1516 1517 1518 1519 1520 1521 1522 1522 1523 1523 1523 1523 1523 1522 1522 1522 1521 1520 1520 1518 1518 1518 1517 1517 1504 1504 1505 1505 1507 1508 1509 1508 1508 1508 1507 1505 1505 1499 1497 1495 1493 1493 1490
1508 1509 1509 1510 1511 1512 1515 1515 1516 1517 1518 1519 1518 1520 1520 1520 1519 1518 1518 1519 1518 1517 1516 1515 1516 1515 1512 1502 1501 1499 1499 1500 1503 1504 1506 1507 1507 1508 1506 1506 1501 1499 1498 1493 1492 1490 1488
1503 1505 1505 1506 1507 1508 1511 1512 1513 1514 1515 1516 1516 1516 1516 1517 1516 1515 1515 1516 1514 1514 1513 1512 1513 1512 1503 1496 1493 1492 1492 1493 1497 1500 1502 1505 1506 1505 1504 1505 1502 1501 1498 1499 1488 1488 1484
1499 1499 1500 1502 1503 1503 1506 1508 1509 1510 1511 1512 1513 1513 1512 1513 1514 1512 1512 1512 1510 1510 1509 1508 1510 1513 1497 1492 1491 1491 1491 1490 1493 1496 1498 1502 1504 1502 1503 1507 1510 1506 1508 1499 1495 1486 1487
1493 1495 1497 1497 1499 1498 1502 1503 1505 1507 1507 1509 1509 1508 1509 1509 1511 1510 1510 1508 1507 1506 1508 1507 1506 1513 1494 1490 1491 1491 1491 1491 1490 1494 1497 1498 1501 1500 1502 1508 1516 1509 1504 1497 1499 1492 1485
1490 1491 1492 1494 1495 1494 1497 1499 1501 1502 1503 1504 1506 1506 1506 1506 1506 1509 1509 1507 1509 1505 1503 1497 1495 1489 1488 1488 1488 1489 1491 1490 1490 1493 1496 1495 1501 1505 1496 1497 1495 1497 1497 1492 1489 1486 1483
1486 1488 1488 1489 1491 1493 1493 1495 1497 1498 1499 1500 1501 1502 1504 1503 1504 1505 1507 1505 1506 1506 1496 1489 1484 1482 1479 1486 1485 1482 1487 1490 1487 1491 1493 1499 1500 1493 1492 1494 1493 1494 1495 1489 1474 1478 1478
1480 1482 1484 1486 1487 1489 1489 1492 1493 1495 1497 1497 1497 1499 1500 1502 1501 1503 1502 1502 1505 1503 1497 1481 1474 1474 1472 1475 1478 1470 1478 1482 1485 1487 1488 1494 1490 1486 1490 1492 1491 1487 1489 1484 1480 1472 1472
1473 1476 1478 1482 1483 1485 1486 1488 1490 1492 1493 1494 1495 1496 1496 1499 1503 1501 1499 1499 1503 1504 1501 1479 1469 1465 1467 1471 1472 1463 1468 1477 1481 1482 1486 1488 1484 1482 1483 1485 1484 1481 1481 1477 1477 1481 1486
1467 1470 1473 1476 1478 1480 1482 1483 1484 1487 1489 1491 1492 1493 1494 1495 1498 1500 1500 1498 1502 1505 1522 1467 1463 1462 1461 1467 1463 1463 1465 1474 1476 1475 1480 1481 1477 1480 1481 1475 1481 1473 1476 1476 1475 1481 1484
1461 1464 1466 1469 1472 1474 1477 1478 1480 1483 1484 1487 1489 1489 1489 1492 1493 1497 1500 1501 1503 1517 1506 1464 1458 1461 1464 1464 1462 1462 1464 1470 1471 1476 1475 1474 1471 1473 1469 1468 1473 1469 1472 1476 1479 1481 1489
1454 1457 1460 1463 1466 1468 1472 1473 1476 1478 1480 1483 1484 1486 1486 1488 1490 1494 1497 1502 1508 1513 1467 1459 1456 1456 1457 1460 1462 1461 1462 1468 1473 1481 1479 1467 1467 1463 1462 1466 1466 1469 1478 1492 1494 1491 1483
1446 1450 1453 1456 1459 1461 1465 1468 1471 1473 1475 1478 1480 1479 1481 1484 1488 1491 1496 1501 1504 1471 1469 1450 1451 1456 1461 1458 1459 1458 1461 1467 1464 1467 1474 1478 1478 1460 1458 1459 1464 1467 1470 1489 1489 1485 1481
1438 1441 1444 1449 1452 1456 1457 1462 1465 1468 1470 1473 1474 1474 1474 1477 1484 1487 1492 1493 1480 1467 1460 1459 1457 1460 1454 1451 1454 1454 1458 1458 1454 1458 1470 1471 1465 1453 1454 1455 1457 1465 1472 1470 1479 1481 1486
1430 1432 1436 1441 1445 1449 1453 1455 1458 1462 1466 1468 1468 1469 1467 1471 1476 1481 1486 1475 1465 1460 1458 1458 1461 1455 1454 1450 1452 1452 1452 1449 1450 1448 1449 1454 1461 1456 1455 1454 1455 1458 1462 1479 1488 1482 1477
1421 1424 1428 1433 1438 1442 1445 1449 1453 1457 1461 1462 1464 1468 1462 1466 1473 1477 1472 1466 1459 1460 1461 1460 1456 1458 1453 1453 1450 1451 1447 1447 1447 1447 1448 1453 1456 1461 1458 1459 1460 1461 1463 1463 1470 1476 1480
1411 1416 1420 1425 1430 1434 1438 1443 1447 1452 1456 1457 1462 1463 1460 1463 1467 1466 1465 1454 1454 1455 1459 1458 1456 1454 1456 1455 1451 1449 1448 1444 1444 1443 1447 1450 1462 1466 1459 1453 1453 1454 1457 1459 1475 1476 1474
1404 1408 1412 1417 1421 1426 1431 1435 1440 1446 1448 1453 1455 1455 1456 1458 1455 1456 1453 1449 1453 1451 1452 1452 1450 1447 1447 1450 1455 1444 1442 1443 1443 1444 1446 1450 1463 1467 1462 1460 1454 1454 1453 1453 1454 1462 1464
1394 1399 1403 1408 1413 1418 1423 1428 1432 1437 1442 1448 1450 1450 1448 1450 1448 1448 1448 1445 1449 1445 1450 1448 1446 1446 1446 1446 1445 1443 1445 1444 1445 1445 1443 1443 1455 1457 1453 1450 1452 1456 1455 1453 1456 1466 1467
1386 1390 1395 1399 1404 1409 1414 1420 1424 1430 1434 1441 1441 1438 1436 1439 1442 1440 1444 1440 1441 1441 1441 1442 1442 1442 1447 1445 1441 1441 1442 1444 1444 1444 1445 1447 1455 1455 1449 1446 1446 1458 1460 1454 1453 1451 1453
1378 1381 1386 1391 1395 1400 1405 1411 1416 1421 1427 1432 1432 1433 1430 1427 1428 1436 1437 1434 1432 1430 1438 1434 1437 1436 1438 1439 1439 1439 1438 1441 1439 1445 1447 1447 1456 1455 1454 1448 1447 1451 1452 1448 1447 1445 1443
1369 1373 1377 1382 1386 1391 1396 1401 1406 1412 1419 1420 1424 1425 1425 1421 1421 1427 1422 1419 1421 1431 1431 1427 1430 1434 1434 1430 1433 1434 1437 1438 1435 1439 1446 1450 1454 1460 1461 1449 1451 1454 1450 1444 1441 1448 1447
1361 1365 1369 1373 1378 1382 1386 1392 1397 1403 1409 1413 1414 1421 1421 1416 1415 1412 1414 1419 1421 1423 1422 1421 1424 1426 1426 1429 1431 1434 1437 1435 1435 1439 1438 1446 1451 1457 1458 1455 1463 1450 1450 1448 1450 1457 1455
1352 1356 1360 1364 1369 1373 1378 1384 1389 1395 1401 1405 1410 1414 1412 1410 1410 1410 1412 1414 1416 1417 1418 1418 1418 1419 1424 1428 1438 1439 1442 1439 1434 1433 1435 1437 1449 1459 1463 1464 1453 1451 1456 1459 1456 1460 1460
1343 1347 1351 1355 1360 1365 1370 1376 1381 1387 1393 1398 1401 1406 1405 1406 1402 1405 1406 1407 1409 1412 1415 1413 1414 1415 1420 1428 1432 1435 1438 1432 1437 1434 1432 1438 1441 1456 1464 1464 1485 1464 1456 1455 1455 1465 1459
1333 1337 1342 1346 1351 1356 1362 1367 1373 1379 1384 1390 1392 1398 1401 1400 1397 1399 1397 1399 1403 1406 1406 1410 1410 1415 1417 1423 1427 1430 1426 1418 1430 1434 1437 1444 1449 1452 1463 1467 1456 1454 1455 1455 1462 1462 1457
1323 1327 1332 1336 1341 1346 1352 1358 1364 1370 1377 1382 1385 1391 1396 1395 1395 1394 1394 1392 1395 1400 1401 1404 1407 1411 1418 1420 1423 1422 1423 1420 1429 1431 1431 1437 1445 1459 1464 1473 1462 1453 1455 1456 1457 1455 1456
1315 1317 1319 1324 1330 1338 1342 1347 1354 1362 1370 1377 1382 1384 1390 1392 1390 1387 1384 1384 1385 1389 1392 1397 1396 1398 1404 1412 1414 1416 1421 1428 1426 1433 1430 1442 1439 1449 1450 1453 1451 1452 1452 1453 1453 1454 1455